Location: Libas
(9.8833°N, 125.9833°E)
Time: 01:57:06
(UTC+00:00)

Cosmos 292 Rocket - Visible Passes

Search period start: 27 February 2021 00:00
Search period end: 09 March 2021 00:00
Orbit: 674 x 693 km, 74.0° (Epoch: 26 February)

Date Brightness Start Highest point End Pass type
(mag) Time Alt. Az. Time Alt. Az. Time Alt. Az.
27 Feb 6.1 19:32:02 16° NE 19:34:03 21° ENE 19:37:39 10° SE visible
27 Feb 5.1 21:10:40 10° NW 21:14:00 20° W 21:17:28 10° SSW visible
28 Feb 3.6 20:11:33 74° NNW 20:11:59 89° WNW 20:16:50 10° SSE visible
01 Mar 6.5 19:12:15 14° ESE 19:12:15 14° ESE 19:13:22 10° ESE visible
01 Mar 5.2 20:50:52 19° WSW 20:50:52 19° WSW 20:53:21 10° SSW visible
02 Mar 5.9 19:51:23 18° SSE 19:51:23 18° SSE 19:52:38 10° SSE visible
